{"data":{"norad_id":68556,"intl_designator":"2026-070Q","name":"STARLINK-37144","alt_names":[],"object_type":"PAYLOAD","status":"ACTIVE","operator":null,"country":"US","launch_date":"2026-04-02","launch_site_code":"AFETR","launch_vehicle":null,"mission":null,"orbit_class":"UNKNOWN","rcs_meters":null,"size_class":null,"mass_kg":null,"dimensions":null,"purposes":["comms"],"wikipedia_slug":null,"has_3d_model":false,"image_url":null,"decayed_at":null,"tle_current":{"epoch":"2026-05-24T22:02:25.524672Z","epoch_age_seconds":92634,"freshness":"FRESH","line1":"1 68556U 26070Q   26144.91835098  .00019417  00000+0  58444-3 0  9994","line2":"2 68556  53.1591   7.9338 0000958  69.6260 290.4845 15.34393912  8232","mean_motion":15.34393912,"eccentricity":9.58e-5,"inclination_deg":53.1591,"raan_deg":7.9338,"arg_perigee_deg":69.626,"mean_anomaly_deg":290.4845,"bstar":0.00058444,"rev_number":823,"period_min":93.848130440184,"perigee_km":462.06598085742,"apogee_km":463.37668931442,"semimajor_km":6840.8583350859,"source":"CELESTRAK","updated_at":"2026-05-25T13:38:21.962516Z"}}}